Location: Arapaho Elementary School
(32.9607°N, 96.7625°W)
Time: 21:21:56
(UTC+00:00)

Cosmos 1500 Rocket - Pass Details

Date: 04 July 2022
Orbit: 602 x 631 km, 82.5° (Epoch: 13 August)

Event Time Altitude Azimuth Distance (km) Brightness Sun altitude
Exits shadow 09:47:55 33° 236° (WSW) 1,052 4.2 -17.1°
Maximum altitude 09:49:16 43° 279° (W) 886 4.0 -16.9°
Drops below altitude 10° 09:53:31 10° 351° (N) 2,012 6.6 -16.3°
Sets 09:55:52 0° 359° (N) 2,926 7.6 -15.9°
